Terminal Aerodrome Forecast
Issued by NWS

Home | Current Version | Previous Version | Text Only | Print | Product List | Glossary Off
Versions: 1 2 3 4 5 6 7 8 9 10 11 12 13 14 15 16 17 18 19 20 21 22 23 24 25 26 27 28 29 30 31 32 33 34 35 36 37 38 39 40

000
FTUS43 KGRB 150539
TAFATW
TAF
KATW 150539Z 1506/1606 16009KT 4SM -SN SCT015 OVC025
      TEMPO 1506/1509 2SM -SN BKN015
     FM150900 14008KT 3SM -SN OVC015
      TEMPO 1509/1512 1SM -SN BKN008
     FM151200 09009KT 1 1/2SM -SN SCT005 OVC010
      TEMPO 1514/1518 3/4SM -SN OVC005
     FM151800 07008KT 1 1/2SM -SN SCT006 OVC012
      TEMPO 1518/1522 3/4SM -SN OVC006
     FM160000 03008KT 3SM -SN OVC025=

USA.gov is the U.S. government's official web portal to all federal, state and local government web resources and services.